DIAMOND RED (42783 NORAD) Tracking and Keplerian Element Data

This shows tracking and keplerian element data for the satellite.

Feedback or suggestion? Click here.




ElementValue
Catalog42783
NameDIAMOND RED
Epoch Orbit15428
Epoch Day94.10845465
Epoch Year2020
RAAN149.6874
Inclination97.3101
Eccentricity0.0010389
Argument of Perigee296.99
Mean Anonmoly63.0276
Mean Motion15.22692618
Decay Rate9.79E-06
L11 42783U 17036U 20094.10845465 .00000979 00000-0 44941-4 0 9990
L22 42783 97.3101 149.6874 0010389 296.9900 63.0276 15.22692618154288

Live tracking and technical data element details for DIAMOND RED (NORAD 42783). DIAMOND RED can be tracked NOW for your location showing map with azimuth and elevation plus other details from your city location.

Track the satellite on the map from your city or location and see movement details for azimuth, elevation, latitude, longitude, range, height, and movement on the map or in text.







IsCatalogInMostPopularTable: catalog: 42783, numindb: 679
Update: records affected: 1



GetName: 42783 DIAMOND RED

Hit Count: updated at: Thu, 09 Apr 2020 17:14:52 GMT